Regional Weather Roundup
Issued by NWS Cleveland, OH

Home | Current Version | Previous Version | Graphics & Text | Print | Product List | Glossary On
Versions: 1 2 3 4 5 6 7 8 9 10 11 12 13 14 15 16 17 18 19 20 21 22 23 24 25 26 27 28 29 30 31 32 33 34 35 36 37 38 39 40 41 42 43 44 45 46 47 48 49 50
000
ASUS41 KCLE 301502
RWRCLE
OHIO REGIONAL WEATHER ROUNDUP
NATIONAL WEATHER SERVICE CLEVELAND, OH
1100 AM EDT THU MAR 30 2017

NOTE: "FAIR" INDICATES FEW OR NO CLOUDS BELOW 12,000 FEET WITH NO
SIGNIFICANT WEATHER AND/OR OBSTRUCTIONS TO VISIBILITY.

OHZ001>008-015>018-024>027-034-035-043-044-301600-
   NORTHWEST OHIO

CITY           SKY/WX    TMP DP  RH WIND       PRES   REMARKS
DEFIANCE       CLOUDY    40  37  89 E15       29.91F
FINDLAY        CLOUDY    46  38  73 NE16G25   29.89R
TOLEDO EXPRESS LGT RAIN  39  37  92 E20       29.92F
TOLEDO EXEC    LGT RAIN  40  38  93 N13G23    30.01R
LIMA           PTSUNNY   51  42  71 N10       29.87R
$$

OHZ009>014-019>023-028>033-038-089-301600-
   NORTHEAST OHIO

CITY           SKY/WX    TMP DP  RH WIND       PRES   REMARKS
CLE-HOPKINS    TSTM      44  37  76 E17       29.99R
CLE-LAKEFRONT  TSTM      39  37  92 NE20G30   29.97S FOG
CUY CO. ARPT   TSTM      43  39  87 NE9       30.04R
LORAIN-ELYRIA  LGT RAIN  42  36  79 E18G24    29.95R
ASHTABULA      LGT RAIN  41  35  79 E10       30.04S
AKRON-CANTON   LGT RAIN  47  34  60 SE14      29.94S
WOOSTER        CLOUDY    47  37  68 E8        29.93R
MANSFIELD      CLOUDY    47  38  71 E10       29.90R
YOUNGSTOWN     CLOUDY    45  32  60 E18       29.99S
$$

OHZ042-051>053-060>062-070>072-077>081-301600-
  SOUTHWEST OHIO

CITY           SKY/WX    TMP DP  RH WIND       PRES   REMARKS
CINC-COVINGTON CLOUDY    63  54  72 SE5       29.79F
CINC-LUNKEN    CLOUDY    62  53  72 S8        29.80F
HAMILTON       PTSUNNY   61  49  64 CALM      29.81F
DAYTON         CLOUDY    55  42  61 S13       29.82S
WRIGHT-PAT AFB PTSUNNY   57  43  59 SE10      29.81F
DAYTON GENERAL PTSUNNY   58  46  64 S9        29.81F
WILMINGTON     CLOUDY    59  49  69 S12       29.83S
$$

OHZ036-037-039>041-045>050-054>059-063>069-073>076-082>088-301600-
  CENTRAL AND SOUTHEAST OHIO

CITY           SKY/WX    TMP DP  RH WIND       PRES   REMARKS
COLUMBUS       CLOUDY    56  41  57 SE10      29.85F
OSU AIRPORT    CLOUDY    57  42  57 SE13      29.84F
BOLTON FIELD   PTSUNNY   55  45  67 SE13      29.85F
RICKENBACK AFB CLOUDY    56  45  68 SE13      29.85F
NEWARK         CLOUDY    56  40  55 SE10      29.87F
MARION         PTSUNNY   52  38  58 E13       29.87R
LANCASTER      MOSUNNY   56  45  66 SE13      29.87F
ZANESVILLE     CLOUDY    49  42  77 SE7       29.90S
NEW PHILLY     NOT AVBL
$$



USA.gov is the U.S. government's official web portal to all federal, state and local government web resources and services.